Home > Weather > Lugano > Past weeks

Flag for Switzerland Past Weather in Lugano, Switzerland — Yesterday and Last 2 Weeks

Now
64 °F

Passing clouds.


Feels Like: 64 °F
Forecast: 64 / 87 °F
Wind: 2 mph from North

Location: Lugano Airport

Current Time: Jul 24, 2016 at 8:51:32 AM

Latest Report: Jul 24, 2016 at 8:20 AM


Visibility: N/A

Pressure: 30.07 "Hg

Humidity: 94%

Dew Point: 63 °F

Location of LuganoLocation

Past Weather in Lugano — Graph

°F

Lugano Temperature Yesterday

Maximum temperature yesterday: 73 °F (at 4:50 PM)
Minimum temperature yesterday: 64 °F (at 10:20 PM)
Average temperature yesterday: 68 °F

High & Low Weather Summary for the Past Weeks

 TemperatureHumidityPressure
High91 °F (Jul 9, 3:50 PM)100% (Jul 11, 3:20 AM)30.18 "Hg (Jul 11, 3:20 AM)
Low52 °F (Jul 14, 5:50 AM)20% (Jul 16, 3:50 PM)29.68 "Hg (Jul 13, 3:50 PM)
Average73 °F68%30.02 "Hg
* Reported Jul 9 7:20 AM — Jul 24 7:20 AM, Lugano, Weather by CustomWeather, © 2016

Note: Actual official high and low records may vary slightly from our data, if they occured in-between our weather recording intervals... More about our weather records

Advertising

Lugano Weather History for the Previous 24 Hours

Scroll right to see more
 ConditionsComfort  
Time TempWeatherWind HumidityBarometerVisibility
7:20 AM
Sun, Jul 24
61 °FPassing clouds.2 mph100%30.07 "HgN/A
6:50 AM59 °FPassing clouds.1 mph100%30.07 "HgN/A
6:20 AM61 °FPassing clouds.1 mph100%30.07 "HgN/A
5:50 AM59 °FClear.6 mph100%30.07 "Hg10 mi
5:20 AM61 °FCool.2 mph100%30.07 "HgN/A
4:50 AM61 °FPassing clouds.3 mph100%30.07 "Hg5 mi
4:20 AM61 °FClear.2 mph100%30.07 "Hg10 mi
3:50 AM61 °FCool.1 mph100%30.09 "HgN/A
3:20 AM61 °FClear.2 mph100%30.09 "HgN/A
2:50 AM61 °FCool.1 mph100%30.09 "HgN/A
2:20 AM61 °FClear.2 mph100%30.09 "HgN/A
1:50 AM63 °FClear.No wind100%30.09 "HgN/A
1:20 AM63 °FClear.2 mph94%30.09 "HgN/A
12:50 AM63 °FClear.1 mph100%30.09 "Hg10 mi
12:20 AM63 °FMild.1 mph100%30.09 "HgN/A
11:50 PM
Sat, Jul 23
64 °FMild.2 mph94%30.09 "HgN/A
11:20 PM64 °FClear.2 mph94%30.09 "HgN/A
10:50 PM64 °FPassing clouds.2 mph94%30.09 "HgN/A
10:20 PM64 °FPassing clouds.5 mph94%30.09 "HgN/A
9:50 PM66 °FSunny.3 mph88%30.09 "Hg10 mi
9:20 PM66 °FSunny.1 mph94%30.07 "Hg10 mi
8:50 PM68 °FSunny.1 mph94%30.07 "Hg10 mi
8:20 PM70 °FSunny.2 mph88%30.07 "Hg10 mi
7:50 PM70 °FPartly sunny.2 mph88%30.07 "HgN/A
7:20 PM72 °FSunny.5 mph83%30.07 "Hg10 mi
6:50 PM72 °FSunny.2 mph83%30.07 "Hg10 mi
6:20 PM72 °FSunny.3 mph83%30.07 "Hg10 mi
5:50 PM72 °FPassing clouds.5 mph83%30.07 "HgN/A
5:20 PM72 °FScattered clouds.5 mph78%30.07 "HgN/A
4:50 PM73 °FScattered clouds.5 mph74%30.07 "HgN/A
4:20 PM72 °FScattered clouds.8 mph83%30.09 "HgN/A
3:50 PM68 °FScattered clouds.3 mph88%30.09 "HgN/A
3:20 PM68 °FSprinkles. Broken clouds.3 mph88%30.09 "HgN/A
2:50 PM68 °FSprinkles. Broken clouds.3 mph88%30.09 "HgN/A
2:20 PM68 °FLight rain. Broken clouds.3 mph94%30.12 "Hg6 mi
1:50 PM66 °FLight rain. Broken clouds.2 mph100%30.12 "Hg5 mi
1:20 PM66 °FThundershowers. More clouds than sun.3 mph100%30.12 "Hg4 mi
12:50 PM66 °FRain. More clouds than sun.3 mph94%30.12 "Hg4 mi
12:20 PM66 °FRain. More clouds than sun.5 mph94%30.12 "Hg4 mi
11:50 AM66 °FThunderstorms. Mostly cloudy.2 mph94%30.12 "Hg3 mi
11:20 AM68 °FThunderstorms. Mostly cloudy.2 mph88%30.09 "Hg3 mi
10:50 AM68 °FThunderstorms. Mostly cloudy.7 mph83%30.07 "Hg3 mi
10:20 AM70 °FThunderstorms. Partly sunny.6 mph78%30.04 "HgN/A
9:50 AM70 °FThundershowers. More clouds than sun.2 mph88%30.04 "HgN/A
9:20 AM70 °FOvercast.3 mph88%30.04 "HgN/A
8:50 AM70 °FPartly sunny.2 mph88%30.04 "HgN/A
8:20 AM68 °FBroken clouds.2 mph94%30.04 "HgN/A
Weather by CustomWeather, © 2016

See weather overviewHow to use our weather pages